Regional Weather Roundup
Issued by NWS Sioux Falls, SD

Home | Current Version | Previous Version | Graphics & Text | Print | Product List | Glossary Off
Versions: 1 2 3 4 5 6 7 8 9 10 11 12 13 14 15 16 17 18 19 20 21 22 23 24 25 26 27 28 29 30 31 32 33 34 35 36 37 38 39 40 41 42 43 44 45 46 47 48 49 50

000
ASUS43 KFSD 200802
RWRFSD

WEATHER ROUNDUP FOR SE SOUTH DAKOTA/SW MINNESOTA/NW IOWA
NATIONAL WEATHER SERVICE SIOUX FALLS SD
300 AM CDT MON OCT 20 2014

NOTE: "FAIR" INDICATES FEW OR NO CLOUDS BELOW 12,000 FEET WITH NO
SIGNIFICANT WEATHER AND OR OBSTRUCTIONS TO VISIBILITY.


SDZ038>040-050-052>070-200900-
SOUTHEAST SOUTH DAKOTA

CITY           SKY/WX    TMP DP  RH WIND       PRES   REMARKS
CHAMBERLAIN    CLEAR     42  36  77 NW3       30.06R
HURON          CLEAR     37  34  89 W7        30.04R
MADISON        FAIR      41  37  87 NW5       30.02S
MITCHELL       CLEAR     46  37  71 NW5       30.04R
SIOUX FALLS    CLEAR     42  37  82 CALM      30.01R
WINNER         FAIR      49  36  61 W6        30.07R
YANKTON        CLEAR     45  37  76 NW12      30.02R
$$

MNZ071-072-080-081-089-090-097-098-200900-
SOUTHWEST MINNESOTA

CITY           SKY/WX    TMP DP  RH WIND       PRES   REMARKS
FAIRMONT       CLEAR     48  36  61 NW9       29.95S
JACKSON        CLEAR     45  36  70 NW8       29.98R
LUVERNE        CLEAR     43  36  75 NW3       30.01R
MARSHALL       CLEAR     45  36  70 W8        29.97R
MONTEVIDEO     CLEAR     45  37  76 NW7       29.98R
PIPESTONE      CLEAR     41  36  81 CALM      30.00R
REDWOOD FALLS  CLEAR     46  38  73 W9        29.95S
TRACY          CLEAR     46  38  75 W6        29.98S
WINDOM         CLEAR     41  36  81 W3        29.98R
WORTHINGTON    CLEAR     43  36  75 NW5       30.00R
$$

IAZ001>003-012>014-020>022-031-032-NEZ013-014-SDZ071-200900-
NORTHWEST IOWA

CITY           SKY/WX    TMP DP  RH WIND       PRES   REMARKS
CHEROKEE       CLEAR     40  39  97 CALM      29.99R
DENISON        CLEAR     43  43 100 CALM      29.96R
ESTHERVILLE    CLEAR     42  37  82 NW9       29.96R
LE MARS        CLEAR     37  37 100 CALM      30.01R
ORANGE CITY    CLEAR     54  39  58 N6        30.00R
SHELDON        CLEAR     39  37  93 NW5       29.99R
SIOUX CITY     CLEAR     41  39  93 CALM      30.00R
SPENCER        CLEAR     38  35  89 NW7       29.98R
STORM LAKE     CLEAR     48  39  71 N8        29.99R
$$

ABBREVIATIONS USED IN REMARKS
   TC - TEMPERATURE IN CELSIUS
  WCI - WIND CHILL INDEX
   HX - HEAT INDEX
  VSB - VISIBILITY



USA.gov is the U.S. government's official web portal to all federal, state and local government web resources and services.